Terug naar catalogus

EXPLORER 7

ActiefWetenschapVLEO
NORAD 22·PAYLOAD·🇺🇸 United States

Gelanceerd Oct 13, 1959 vanaf Cape Canaveral Space Force Station

Loading…

Volgende Passages (komende 24 uur)

TLE

VersSource: Space-Track

Epoch: Sep 14, 2026, 13:38 UTC

1 00022U 59009A   26257.56874168  .00010847  00000-0  34177-3 0  9999
2 00022  50.2420  17.4906 0074094 126.2564 234.5273 15.30757225814035

Volg EXPLORER 7 in realtime met AllMySat

Download on the App Store